Location: Eaton Estates
(41.3089°N, 82.0057°W)
Time: 01:26:47
(UTC+00:00)

Terra - Pass Details

Date: 17 June 2021
Orbit: 701 x 703 km, 98.2° (Epoch: 02 August)

Event Time Altitude Azimuth Distance (km) Brightness Sun altitude
Exits shadow 02:02:31 - 102° (ESE) 2,316 4.0 -9.6°
Reaches altitude 10° 02:03:07 10° 97° (E) 2,171 3.9 -9.6°
Maximum altitude 02:05:48 15° 62° (ENE) 1,843 3.8 -10.0°
Drops below altitude 10° 02:08:29 10° 28° (NNE) 2,179 4.6 -10.4°
Sets 02:11:37 0° 6° (N) 3,102 5.8 -10.8°
